Location: Columbia
(38.9520°N, 92.3340°W)
Time: 23:31:53
(UTC-05:00)

Cosmos 1603 - Visible Passes

Search period start: 24 September 2017 00:00
Search period end: 04 October 2017 00:00
Orbit: 832 x 858 km, 71.0° (Epoch: 24 September)

Date Brightness Start Highest point End Pass type
(mag) Time Alt. Az. Time Alt. Az. Time Alt. Az.
24 Sep 6.4 03:04:35 10° N 03:04:41 10° N 03:04:41 10° N visible
24 Sep 6.4 19:41:26 10° W 19:44:58 17° NW 19:48:30 10° NNW visible
25 Sep 6.3 19:27:23 10° W 19:30:59 17° NW 19:34:38 10° N visible
